Kodiak, AK

1:13 PM AKST on December 06, 2016 (GMT -0900)
Kodiak

Weather History for PADQ - June, 2013

Change the Weather History Date:

Monday, June 10, 2013

  Actual Average Record
Temperature  
Mean Temperature 60 °F 49 °F  
Max Temperature 69 °F 54 °F 72 °F (1974)
Min Temperature 50 °F 43 °F 35 °F (1997)
Degree Days  
Heating Degree Days 5 16  
Month to date heating degree days 142 172  
Since 1 June heating degree days 142 172  
Since 1 July heating degree days 8687 8506  
Cooling Degree Days 0    
Month to date cooling degree days 0  
Year to date cooling degree days 0  
Since 1 June cooling degree days 0  
Growing Degree Days 10 (Base 50)    
Moisture  
Dew Point 40 °F    
Average Humidity 0    
Maximum Humidity 0    
Minimum Humidity 0    
Precipitation  
Precipitation 0.00 in 0.21 in 1.71 in (1999)
Month to date precipitation 2.21 2.11  
Year to date precipitation 27.65 33.50  
Snow  
Snow 0.00 in 0.00 in 0.00 in (2016)
Month to date snowfall 0.0 0.0  
Since 1 June snowfall 0.0 0.0  
Snow Depth 0.00 in    
Sea Level Pressure  
Sea Level Pressure 30.26 in    
Wind  
Wind Speed 9 mph (NNW)    
Max Wind Speed 16 mph    
Max Gust Speed 23 mph    
Visibility 10 miles    
Events      
T = Trace of Precipitation, MM = Missing Value Source: NWS Daily Summary

Daily Weather History Graph

Daily Weather History Graph

Search for Another Location

Airport or City:

Trip Planner

Search our weather history database for the weather conditions in past years. The results will help you decide how hot, cold, wet, or windy it might be!

Date:

Astronomy

Jun. 10, 2013 Rise Set
Actual Time 5:10 AM AKDT 11:09 PM AKDT
Civil Twilight 3:59 AM AKDT 12:20 AM AKDT
Nautical Twilight 2:41 AM AKDT 1:37 AM AKDT
Astronomical Twilight Sun does not rise Sun does not rise
Moon 7:32 AM AKDT (6/10) No Moon Set
Length of Visible Light 20h 21m
Length of Day
17h 58m
Waxing Crescent, 4% of the Moon is Illuminated
Jun 10
Waxing Crescent
Jun 16
First Quarter
Jun 23
Full
Jun 29
Last Quarter
Jul 7
New

Hourly Weather History & Observations

Time (AKDT) Temp. Dew Point Humidity Pressure Visibility Wind Dir Wind Speed Gust Speed Precip Events Conditions
12:53 AM 53.1 °F 37.9 °F 57% 30.30 in 10.0 mi WNW 10.4 mph - N/A   Clear
1:53 AM 53.1 °F 37.9 °F 57% 30.30 in 10.0 mi WNW 16.1 mph - N/A   Clear
2:53 AM 51.1 °F 37.9 °F 61% 30.29 in 10.0 mi West 9.2 mph - N/A   Clear
3:53 AM 52.0 °F 37.9 °F 59% 30.29 in 10.0 mi WNW 9.2 mph - N/A   Partly Cloudy
4:53 AM 53.1 °F 37.9 °F 57% 30.29 in 10.0 mi WNW 11.5 mph - N/A   Clear
5:53 AM 53.1 °F 37.9 °F 57% 30.29 in 10.0 mi WNW 11.5 mph - N/A   Partly Cloudy
6:53 AM 55.0 °F 37.9 °F 53% 30.28 in 10.0 mi WNW 10.4 mph - N/A   Partly Cloudy
7:53 AM 57.9 °F 39.0 °F 49% 30.28 in 10.0 mi WNW 9.2 mph - N/A   Partly Cloudy
8:53 AM 61.0 °F 39.9 °F 46% 30.27 in 10.0 mi NNW 8.1 mph - N/A   Clear
9:53 AM 55.0 °F 44.1 °F 67% 30.27 in 10.0 mi East 6.9 mph - N/A   Clear
10:53 AM 55.0 °F 44.1 °F 67% 30.27 in 10.0 mi East 5.8 mph - N/A   Clear
11:53 AM 59.0 °F 42.1 °F 53% 30.27 in 10.0 mi East 8.1 mph - N/A   Clear
12:53 PM 57.9 °F 44.1 °F 60% 30.27 in 10.0 mi ENE 5.8 mph - N/A   Clear
1:53 PM 57.9 °F 43.0 °F 58% 30.27 in 10.0 mi NE 4.6 mph - N/A   Clear
2:53 PM 60.1 °F 42.1 °F 51% 30.27 in 10.0 mi East 5.8 mph - N/A   Clear
3:53 PM 59.0 °F 43.0 °F 55% 30.26 in 10.0 mi NE 5.8 mph - N/A   Clear
4:53 PM 59.0 °F 42.1 °F 53% 30.25 in 10.0 mi NE 6.9 mph - N/A   Clear
5:53 PM 57.0 °F 43.0 °F 59% 30.24 in 10.0 mi NE 8.1 mph - N/A   Clear
6:53 PM 57.9 °F 44.1 °F 60% 30.22 in 10.0 mi ENE 6.9 mph - N/A   Clear
7:53 PM 68.0 °F 37.9 °F 33% 30.22 in 10.0 mi WNW 15.0 mph - N/A   Clear
8:53 PM 66.0 °F 37.9 °F 36% 30.22 in 10.0 mi WNW 12.7 mph - N/A   Clear
9:53 PM 63.0 °F 39.0 °F 41% 30.21 in 10.0 mi NW 9.2 mph - N/A   Clear
10:53 PM 61.0 °F 39.0 °F 44% 30.22 in 10.0 mi Variable 4.6 mph - N/A   Clear
11:53 PM 60.1 °F 39.0 °F 46% 30.22 in 10.0 mi WNW 10.4 mph - N/A   Clear